Location: Bon Acre
(42.6442°N, 73.5758°W)
Time: 04:08:50
(UTC+00:00)

SL-08 R/B - Pass Details

Date: 18 March 2026
Orbit: 946 x 992 km, 83.0° (Epoch: 13 April)

Event Time Altitude Azimuth Distance (km) Brightness Sun altitude
Exits shadow 03:31:48 - 265° (W) 3,082 7.3 -43.6°
Reaches altitude 10° 03:35:22 10° 295° (WNW) 2,671 7.2 -44.0°
Maximum altitude 03:35:48 10° 299° (WNW) 2,666 7.3 -44.0°
Drops below altitude 10° 03:36:15 10° 304° (WNW) 2,672 7.3 -44.1°
Sets 03:42:10 0° 348° (NNW) 3,625 8.2 -44.6°
